• In Deutschland
  • Länderverzeichnis
  • Für 7 Tage
  • Wassertemperatur
  • Satellitenkarten
  • Wetterkarte
  • Widgets
  • user-avatar
    Anmelden

    Stündliche Wetter New Braunfels

    Heute, 18 November, Samstag

    Zeit Temperatur Niederschläge Wind Luftdruck Luftfeuchtigkeit
    00:00 +22°C° 0 mm 5 m/S 737 mmHg 92%
    01:00 +21°C° 0 mm 5 m/S 737 mmHg 93%
    02:00 +21°C° 0 mm 5 m/S 737 mmHg 94%
    03:00 +21°C° 0 mm 5 m/S 737 mmHg 94%
    04:00 +21°C° 0 mm 4 m/S 737 mmHg 95%
    05:00 +20°C° 0 mm 4 m/S 737 mmHg 95%
    06:00 +21°C° 0 mm 4 m/S 738 mmHg 92%
    07:00 +22°C° 0 mm 4 m/S 738 mmHg 88%
    08:00 +23°C° 0 mm 4 m/S 739 mmHg 85%
    09:00 +26°C° 0 mm 5 m/S 739 mmHg 69%
    10:00 +28°C° 0 mm 5 m/S 739 mmHg 54%
    11:00 +30°C° 0 mm 6 m/S 740 mmHg 39%
    12:00 +28°C° 0 mm 7 m/S 740 mmHg 38%
    13:00 +27°C° 0 mm 9 m/S 740 mmHg 37%
    14:00 +24°C° 0 mm 10 m/S 740 mmHg 36%
    15:00 +23°C° 0 mm 9 m/S 741 mmHg 38%
    16:00 +21°C° 0 mm 7 m/S 742 mmHg 39%
    17:00 +19°C° 0 mm 6 m/S 743 mmHg 40%
    18:00 +17°C° 0 mm 6 m/S 743 mmHg 40%
    19:00 +17°C° 0 mm 7 m/S 744 mmHg 40%
    20:00 +16°C° 0 mm 7 m/S 745 mmHg 40%
    21:00 +15°C° 0 mm 6 m/S 746 mmHg 40%
    22:00 +14°C° 0 mm 6 m/S 746 mmHg 39%
    23:00 +13°C° 0 mm 5 m/S 747 mmHg 39%

    Morgen, 19 November, Sonntag

    Zeit Temperatur Niederschläge Wind Luftdruck Luftfeuchtigkeit
    00:00 +12°C° 0 mm 5 m/S 747 mmHg 41%
    01:00 +12°C° 0 mm 4 m/S 747 mmHg 42%
    02:00 +11°C° 0 mm 4 m/S 747 mmHg 44%
    03:00 +11°C° 0 mm 3 m/S 747 mmHg 45%
    04:00 +10°C° 0 mm 3 m/S 747 mmHg 46%
    05:00 +10°C° 0 mm 3 m/S 748 mmHg 47%
    06:00 +11°C° 0 mm 3 m/S 748 mmHg 43%
    07:00 +12°C° 0 mm 4 m/S 749 mmHg 40%
    08:00 +12°C° 0 mm 4 m/S 749 mmHg 37%
    09:00 +14°C° 0 mm 4 m/S 749 mmHg 33%
    10:00 +16°C° 0 mm 3 m/S 749 mmHg 30%
    11:00 +17°C° 0 mm 3 m/S 748 mmHg 26%
    12:00 +17°C° 0 mm 3 m/S 748 mmHg 26%
    13:00 +17°C° 0 mm 3 m/S 747 mmHg 26%
    14:00 +18°C° 0 mm 2 m/S 746 mmHg 26%
    15:00 +16°C° 0 mm 2 m/S 745 mmHg 30%
    16:00 +15°C° 0 mm 2 m/S 745 mmHg 33%
    17:00 +14°C° 0 mm 2 m/S 745 mmHg 37%
    18:00 +13°C° 0 mm 2 m/S 745 mmHg 39%
    19:00 +12°C° 0 mm 2 m/S 745 mmHg 41%
    20:00 +10°C° 0 mm 2 m/S 746 mmHg 43%
    21:00 +10°C° 0 mm 2 m/S 745 mmHg 44%
    22:00 +11°C° 0 mm 1 m/S 745 mmHg 46%
    23:00 +10°C° 0 mm 1 m/S 745 mmHg 48%

    übermorgen, 20 November, Montag

    Zeit Temperatur Niederschläge Wind Luftdruck Luftfeuchtigkeit
    00:00 +10°C° 0 mm 1 m/S 745 mmHg 49%
    01:00 +9°C° 0 mm 2 m/S 744 mmHg 50%
    02:00 +8°C° 0 mm 2 m/S 744 mmHg 51%
    03:00 +8°C° 0 mm 2 m/S 744 mmHg 52%
    04:00 +8°C° 0 mm 2 m/S 744 mmHg 53%
    05:00 +8°C° 0 mm 2 m/S 744 mmHg 54%
    06:00 +9°C° 0 mm 2 m/S 744 mmHg 52%
    07:00 +10°C° 0 mm 2 m/S 744 mmHg 50%
    08:00 +12°C° 0 mm 3 m/S 744 mmHg 49%
    09:00 +14°C° 0 mm 3 m/S 744 mmHg 48%
    10:00 +17°C° 0 mm 4 m/S 743 mmHg 48%
    11:00 +19°C° 0 mm 4 m/S 743 mmHg 48%
    12:00 +19°C° 0 mm 4 m/S 742 mmHg 48%
    13:00 +20°C° 0 mm 4 m/S 741 mmHg 49%
    14:00 +20°C° 0 mm 4 m/S 740 mmHg 50%
    15:00 +19°C° 0 mm 4 m/S 740 mmHg 55%
    16:00 +18°C° 0 mm 3 m/S 740 mmHg 61%
    17:00 +17°C° 0 mm 3 m/S 740 mmHg 67%
    18:00 +16°C° 0 mm 3 m/S 740 mmHg 72%
    19:00 +16°C° 0 mm 3 m/S 740 mmHg 76%
    20:00 +14°C° 0 mm 3 m/S 740 mmHg 80%
    21:00 +14°C° 0 mm 3 m/S 740 mmHg 83%
    22:00 +14°C° 0 mm 3 m/S 740 mmHg 85%
    23:00 +13°C° 0 mm 3 m/S 740 mmHg 88%

    21 November, Dienstag

    Zeit Temperatur Niederschläge Wind Luftdruck Luftfeuchtigkeit
    00:00 +13°C° 0 mm 3 m/S 739 mmHg 89%
    01:00 +14°C° 0 mm 2 m/S 739 mmHg 90%
    02:00 +14°C° 0 mm 2 m/S 738 mmHg 92%
    03:00 +14°C° 0 mm 2 m/S 738 mmHg 93%
    04:00 +14°C° 0 mm 2 m/S 738 mmHg 93%
    05:00 +14°C° 0 mm 2 m/S 738 mmHg 94%
    06:00 +15°C° 0 mm 2 m/S 739 mmHg 91%
    07:00 +17°C° 0 mm 2 m/S 739 mmHg 87%
    08:00 +18°C° 0 mm 2 m/S 740 mmHg 83%
    09:00 +19°C° 0 mm 3 m/S 739 mmHg 78%
    10:00 +21°C° 0 mm 3 m/S 739 mmHg 73%
    11:00 +22°C° 0 mm 3 m/S 739 mmHg 69%
    12:00 +24°C° 0 mm 3 m/S 738 mmHg 67%
    13:00 +24°C° 0 mm 3 m/S 738 mmHg 66%
    14:00 +24°C° 0 mm 2 m/S 737 mmHg 65%
    15:00 +23°C° 0 mm 2 m/S 738 mmHg 68%
    16:00 +22°C° 0 mm 3 m/S 738 mmHg 72%
    17:00 +21°C° 0 mm 3 m/S 739 mmHg 75%
    18:00 +20°C° 0 mm 3 m/S 739 mmHg 77%
    19:00 +20°C° 0 mm 3 m/S 740 mmHg 80%
    20:00 +19°C° 0 mm 4 m/S 740 mmHg 82%
    21:00 +19°C° 0,5 mm 4 m/S 741 mmHg 86%
    22:00 +18°C° 0,5 mm 3 m/S 741 mmHg 90%
    23:00 +18°C° 0,5 mm 3 m/S 741 mmHg 94%

    22 November, Mittwoch

    Zeit Temperatur Niederschläge Wind Luftdruck Luftfeuchtigkeit
    00:00 +18°C° 0,4 mm 4 m/S 742 mmHg 94%
    01:00 +17°C° 0,4 mm 4 m/S 742 mmHg 93%
    02:00 +16°C° 0,4 mm 5 m/S 743 mmHg 93%
    03:00 +16°C° 0,3 mm 5 m/S 743 mmHg 92%
    04:00 +16°C° 0,3 mm 5 m/S 744 mmHg 91%
    05:00 +16°C° 0,3 mm 6 m/S 744 mmHg 90%
    06:00 +16°C° 0 mm 6 m/S 745 mmHg 88%
    07:00 +16°C° 0 mm 6 m/S 746 mmHg 86%
    08:00 +16°C° 0 mm 6 m/S 746 mmHg 84%
    09:00 +17°C° 0 mm 6 m/S 747 mmHg 81%
    10:00 +17°C° 0 mm 6 m/S 747 mmHg 78%
    11:00 +19°C° 0 mm 6 m/S 747 mmHg 74%
    12:00 +19°C° 0 mm 6 m/S 746 mmHg 71%
    13:00 +19°C° 0 mm 6 m/S 746 mmHg 68%
    14:00 +20°C° 0 mm 5 m/S 745 mmHg 65%
    15:00 +19°C° 0 mm 5 m/S 745 mmHg 67%
    16:00 +18°C° 0 mm 4 m/S 745 mmHg 68%
    17:00 +17°C° 0 mm 4 m/S 745 mmHg 70%
    18:00 +16°C° 0 mm 3 m/S 745 mmHg 71%
    19:00 +14°C° 0 mm 3 m/S 746 mmHg 72%
    20:00 +13°C° 0 mm 3 m/S 746 mmHg 73%
    21:00 +14°C° 0 mm 2 m/S 746 mmHg 74%
    22:00 +13°C° 0 mm 2 m/S 746 mmHg 75%
    23:00 +13°C° 0 mm 2 m/S 746 mmHg 75%

    23 November, Donnerstag

    Zeit Temperatur Niederschläge Wind Luftdruck Luftfeuchtigkeit
    00:00 +12°C° 0 mm 2 m/S 745 mmHg 75%
    01:00 +12°C° 0 mm 2 m/S 745 mmHg 75%
    02:00 +12°C° 0 mm 2 m/S 745 mmHg 74%
    03:00 +12°C° 0 mm 2 m/S 745 mmHg 74%
    04:00 +10°C° 0 mm 2 m/S 745 mmHg 74%
    05:00 +10°C° 0 mm 2 m/S 745 mmHg 75%
    06:00 +12°C° 0 mm 2 m/S 745 mmHg 71%
    07:00 +13°C° 0 mm 2 m/S 746 mmHg 67%
    08:00 +14°C° 0 mm 2 m/S 746 mmHg 63%
    09:00 +15°C° 0 mm 2 m/S 746 mmHg 58%
    10:00 +17°C° 0 mm 2 m/S 745 mmHg 53%
    11:00 +19°C° 0 mm 2 m/S 745 mmHg 48%
    12:00 +20°C° 0 mm 2 m/S 744 mmHg 46%
    13:00 +21°C° 0 mm 3 m/S 743 mmHg 44%
    14:00 +22°C° 0 mm 3 m/S 743 mmHg 42%
    15:00 +20°C° 0 mm 2 m/S 743 mmHg 47%
    16:00 +19°C° 0 mm 2 m/S 742 mmHg 51%
    17:00 +19°C° 0 mm 1 m/S 742 mmHg 56%
    18:00 +18°C° 0 mm 1 m/S 743 mmHg 58%
    19:00 +16°C° 0 mm 1 m/S 743 mmHg 60%
    20:00 +15°C° 0 mm 2 m/S 743 mmHg 63%
    21:00 +15°C° 0 mm 2 m/S 743 mmHg 63%
    22:00 +14°C° 0 mm 2 m/S 743 mmHg 63%
    23:00 +14°C° 0 mm 2 m/S 743 mmHg 63%
    Mehr zeigen